Theta_e
321 311 306 307 301 296 293 298 306 307 310 317 321 331 328 328 325 314 341 351 354 358 361 361 364 364 363 363 363 361 360 359 360 361 361 360 359 361 362 362 361 360 357 357 354 354 355 355 354
319 314 308 303 295 291 294 301 304 307 312 317 333 334 332 331 340 342 345 353 354 358 360 358 364 363 363 363 362 361 360 359 359 361 361 361 360 360 361 362 362 360 356 355 354 353 354 353 353
318 312 302 297 292 292 295 303 306 311 315 317 317 335 335 333 343 344 351 353 355 356 359 359 363 363 363 362 362 361 360 360 359 361 361 361 360 359 360 360 360 359 356 355 354 354 354 354 354
305 301 299 292 291 296 301 304 307 308 311 313 316 321 334 346 344 350 353 353 352 354 358 363 362 362 362 362 361 361 360 359 359 360 361 361 360 359 359 359 359 358 357 355 355 355 356 355 355
303 296 290 288 292 295 301 303 303 304 306 309 315 325 331 345 351 352 352 351 348 352 356 362 362 362 363 362 361 361 361 359 359 360 360 361 361 359 359 359 358 358 358 356 355 356 357 356 355
300 294 287 288 290 296 298 301 301 303 306 308 313 322 329 348 349 351 352 348 351 353 357 360 363 362 361 361 360 360 359 359 359 359 359 360 360 360 359 359 357 357 358 358 356 357 355 354 353
296 289 287 288 291 294 299 300 299 301 301 305 314 318 330 343 349 351 352 350 353 355 355 357 360 362 363 360 360 359 359 359 358 358 359 359 360 359 359 359 358 357 357 357 357 357 355 354 352
296 292 287 290 291 292 299 300 299 300 302 310 316 315 327 337 350 350 350 350 354 354 354 355 356 358 359 358 361 360 360 359 359 359 359 359 359 359 359 356 357 357 356 356 356 356 355 354 352
298 287 285 289 293 295 300 299 302 305 303 307 309 322 340 343 344 345 346 349 351 352 351 353 354 353 354 355 359 360 361 360 359 359 359 356 352 353 355 355 357 356 355 355 355 354 354 352 352
294 287 289 294 296 296 300 298 300 302 301 302 305 320 342 342 340 344 344 345 346 347 348 351 354 354 354 356 355 355 357 357 355 355 354 350 348 348 353 353 356 357 355 354 354 354 353 351 339
293 290 295 297 299 299 300 298 302 300 297 300 301 305 310 312 317 339 344 346 346 348 348 349 352 354 353 354 352 354 354 356 353 352 351 347 346 347 347 343 347 346 352 345 348 345 343 339 335
290 295 298 298 301 299 299 300 300 301 301 304 304 305 306 305 305 307 314 340 346 347 347 348 350 351 351 353 351 352 353 353 351 350 349 344 340 341 341 339 339 341 341 339 337 337 338 337 334
292 294 297 298 300 300 300 299 299 299 304 305 305 306 304 303 303 304 306 321 342 346 346 346 348 348 348 351 351 351 351 351 350 350 350 347 340 336 338 338 339 340 338 337 333 332 333 331 331
295 296 297 298 295 297 297 299 298 301 304 304 303 303 304 304 303 302 304 306 332 346 345 346 345 344 343 348 349 350 351 350 350 349 349 347 344 338 337 337 338 338 338 337 335 331 329 329 330
297 292 296 296 295 294 297 295 296 301 303 302 302 302 302 304 306 304 305 305 321 340 344 342 344 343 340 343 345 346 347 348 347 346 347 347 342 337 339 338 339 339 338 337 334 331 330 331 334
292 290 289 294 296 296 297 292 298 301 301 301 301 302 302 302 304 304 305 306 315 339 341 342 344 342 341 343 343 341 342 343 343 343 343 344 341 339 334 339 339 339 338 336 333 333 332 333 333
289 286 286 291 297 297 295 293 298 301 300 299 300 301 303 303 304 304 304 305 309 339 341 341 342 341 340 343 342 341 341 342 342 341 340 341 342 342 341 340 340 343 340 337 337 336 337 335 336
285 286 289 289 294 296 294 294 297 299 299 300 299 302 302 303 304 307 306 306 306 331 342 342 342 343 346 348 344 341 341 339 337 339 337 338 339 337 334 333 335 339 337 334 336 334 335 333 335
293 291 290 293 297 294 293 295 297 299 298 298 299 301 302 303 307 307 307 307 307 315 339 342 339 337 344 344 342 339 335 334 333 336 336 335 335 336 335 335 334 334 334 333 333 332 331 328 332
293 291 291 294 297 293 294 294 298 298 299 300 301 301 302 303 304 305 305 306 306 320 339 341 337 336 340 334 332 337 336 334 335 335 332 333 333 335 336 336 334 333 332 332 333 330 329 330 332
293 291 292 291 295 296 293 292 294 298 300 302 302 303 303 304 305 305 307 305 319 335 339 337 334 334 338 334 335 334 332 332 333 331 331 333 333 334 333 333 333 332 331 331 328 329 328 326 331
290 297 296 294 293 286 293 284 291 296 298 301 303 301 305 309 310 307 309 320 334 336 343 341 337 336 336 336 334 332 331 328 329 332 333 333 333 331 330 327 326 325 325 329 332 335 330 330 328
294 299 297 296 293 288 290 285 289 294 295 297 300 303 304 314 325 323 335 337 341 340 342 340 339 338 338 336 336 334 331 332 328 331 330 328 328 330 330 327 325 325 326 328 331 333 334 333 331
302 298 295 295 290 284 289 287 287 291 295 298 300 305 309 313 314 315 319 323 335 340 339 339 338 336 336 336 333 331 329 326 323 324 323 324 325 327 328 328 326 324 327 329 331 329 331 329 329
298 293 285 283 282 281 289 287 288 296 300 302 303 304 309 310 312 319 322 325 326 330 338 337 336 332 333 330 329 328 325 326 325 323 324 324 326 327 328 328 326 327 328 332 331 328 327 327 326
292 293 282 277 279 281 291 285 289 300 305 307 309 309 311 312 318 321 323 324 326 328 328 335 336 333 331 331 329 327 325 324 325 327 327 327 328 330 329 328 328 327 331 332 331 329 327 325 326
294 288 294 286 289 284 286 292 303 306 304 307 309 311 311 314 319 320 322 321 321 323 324 328 330 331 332 329 327 327 329 329 328 329 331 330 330 330 334 331 324 322 327 330 330 328 327 325 328
297 296 287 289 280 279 286 292 294 300 302 304 305 304 307 315 319 321 319 317 317 319 321 323 323 322 324 327 331 331 329 331 331 329 327 325 322 320 329 327 325 322 321 325 328 325 326 328 330
293 292 292 291 288 281 284 287 302 301 301 302 302 306 308 307 315 317 316 317 316 317 319 319 321 320 321 322 322 323 324 325 325 321 323 324 321 320 319 320 323 321 323 322 320 324 327 327 326
299 294 291 285 285 288 290 289 306 304 304 306 306 308 310 311 311 310 314 313 312 311 312 311 313 316 316 317 318 318 318 319 319 320 321 323 324 323 325 328 329 328 328 328 327 326 329 326 323
Wind_Speed
7 8 1 4 4 5 5 9 3 8 8 3 8 8 8 5 5 5 6 16 17 17 13 15 20 19 18 18 17 16 16 16 16 16 15 16 16 16 16 15 15 14 15 15 14 13 12 11 11
4 5 4 2 5 1 8 3 9 10 7 2 9 5 5 2 6 12 13 14 22 18 15 13 20 19 19 18 17 16 16 17 17 16 15 15 15 15 15 15 14 14 15 14 14 13 12 9 9
4 0 4 4 4 8 8 5 2 10 17 10 7 4 3 7 9 14 11 21 17 16 15 13 20 21 20 19 18 17 17 17 17 16 15 14 14 13 13 13 13 13 14 13 13 12 11 9 7
2 4 4 3 12 8 11 6 7 15 17 9 3 7 4 6 10 10 21 23 18 14 14 17 19 20 21 20 19 18 18 18 18 18 16 15 14 13 12 12 12 12 12 13 12 11 9 8 6
3 3 0 4 10 7 10 8 6 11 7 12 9 7 4 4 14 22 20 19 20 14 12 15 18 20 21 21 18 17 17 17 17 17 16 15 14 13 12 12 11 11 11 11 11 10 8 6 4
2 3 2 10 5 7 7 7 4 9 12 10 4 6 4 13 20 16 17 16 15 16 12 12 17 17 20 21 19 16 15 15 15 15 15 14 13 12 11 11 10 10 10 10 11 9 8 8 6
5 4 6 5 4 7 7 3 4 10 9 9 5 6 6 13 15 18 15 15 14 13 12 9 10 12 14 17 18 17 14 13 13 14 14 14 13 11 10 9 9 8 8 8 8 7 7 7 7
5 5 4 5 5 9 7 5 5 5 11 7 9 6 9 11 18 15 14 14 14 13 12 9 7 6 5 5 14 18 18 15 12 11 12 12 12 11 10 8 7 7 7 7 8 7 8 8 8
4 3 5 7 6 7 3 6 6 6 7 6 9 7 14 17 19 14 13 9 9 9 10 11 10 7 7 5 7 9 16 18 16 13 12 9 4 6 7 7 8 8 7 7 7 7 8 8 9
5 6 10 8 5 7 9 2 4 5 9 7 9 10 9 11 19 18 16 14 12 12 12 13 14 13 10 8 8 7 7 4 6 7 8 4 4 4 6 7 10 8 8 8 8 9 9 7 3
6 8 9 5 12 12 15 3 4 1 4 4 3 4 8 5 6 12 17 21 22 18 12 15 15 16 15 11 7 5 3 4 3 6 6 6 5 4 2 1 2 3 8 4 5 4 3 5 4
5 6 10 8 14 8 12 3 4 5 8 5 7 4 3 3 6 3 9 7 11 18 18 17 17 17 16 10 10 9 7 6 6 6 7 5 3 5 5 4 5 4 3 5 4 3 5 6 6
9 5 6 10 15 19 12 15 9 8 8 8 8 10 6 7 6 5 4 7 11 12 13 13 12 10 10 11 8 9 9 8 9 9 10 8 6 6 5 5 5 6 5 5 5 5 5 5 6
6 14 19 15 12 12 14 16 4 5 8 7 9 12 12 9 8 4 3 2 8 11 14 15 13 11 9 9 11 10 9 10 9 9 9 11 8 6 6 6 6 7 7 6 6 6 5 5 4
10 10 12 12 8 10 8 17 11 7 6 9 10 11 11 12 12 8 7 5 9 7 13 16 16 14 10 9 8 9 9 10 9 9 12 12 10 9 8 7 8 8 7 7 5 6 5 4 4
5 6 17 8 8 8 10 27 11 7 8 11 11 10 9 12 13 8 9 8 9 10 14 15 16 17 15 12 10 8 8 7 8 8 8 11 7 5 6 4 6 3 3 4 4 6 5 7 7
5 11 7 4 9 8 13 23 8 10 9 10 11 11 12 13 11 11 9 10 10 13 15 14 15 17 12 8 6 5 7 5 4 4 5 8 8 5 5 5 3 4 4 3 4 2 3 2 2
5 2 5 7 5 8 10 19 7 8 10 14 11 14 13 14 17 17 12 9 9 10 15 17 12 8 9 8 7 7 5 3 3 4 5 7 7 7 6 4 4 4 4 3 2 2 3 3 3
5 6 8 5 13 6 10 19 17 15 10 9 10 10 9 11 19 15 10 9 9 8 11 15 13 8 10 8 8 5 4 3 3 3 5 6 6 8 9 6 5 5 5 5 5 4 3 2 3
10 9 16 6 12 6 14 19 21 14 15 15 14 10 11 8 10 9 9 7 9 9 14 12 13 14 10 7 3 3 6 3 2 3 4 5 6 6 8 10 11 8 6 8 8 6 2 2 3
13 15 13 12 8 8 6 16 9 9 13 7 8 9 7 10 9 10 8 7 7 12 14 15 15 16 13 8 8 6 7 4 4 2 4 9 13 14 8 4 4 8 2 4 3 5 4 3 2
15 16 13 17 9 9 5 8 4 6 9 6 9 7 8 6 3 3 6 8 9 9 12 17 18 16 10 8 7 6 6 7 5 10 11 12 8 3 3 4 0 4 2 2 1 1 2 1 3
16 11 15 20 15 5 8 1 9 3 7 7 9 7 7 7 13 10 9 9 8 10 11 11 12 9 10 10 10 10 9 7 1 3 1 4 1 3 7 7 7 7 5 5 4 3 5 3 5
17 15 11 17 4 6 17 8 7 5 8 5 3 9 7 13 17 15 14 12 8 8 9 10 13 10 10 11 8 10 7 3 3 1 1 2 2 3 4 2 2 2 2 2 4 5 3 3 4
18 12 4 5 5 10 7 6 8 6 6 6 6 12 8 7 13 14 15 13 9 6 10 9 11 10 11 10 9 9 7 7 7 7 6 6 4 5 8 5 5 2 2 2 4 3 6 6 1
5 17 6 6 4 6 1 6 6 8 2 4 12 15 12 12 14 15 13 13 13 13 8 3 9 9 11 12 7 6 6 4 4 5 6 6 7 7 5 5 5 1 5 5 4 8 6 9 11
12 7 16 2 0 4 2 7 5 15 13 11 19 12 13 11 13 16 15 14 13 13 11 10 11 5 5 5 3 3 3 5 6 7 6 6 3 3 6 11 9 6 11 12 12 10 13 7 4
11 5 5 2 5 3 5 3 1 10 11 3 13 9 6 10 14 15 15 14 13 12 11 13 12 11 9 7 6 5 6 7 5 3 3 4 4 3 5 8 9 7 4 2 5 7 13 11 8
6 8 4 8 6 6 2 1 3 6 8 8 8 6 10 9 9 14 14 14 13 12 11 9 11 11 11 8 7 9 7 6 5 4 3 4 4 5 6 6 6 6 5 4 4 10 15 15 13
5 5 5 6 4 4 6 4 1 9 12 6 7 9 9 14 14 10 9 14 14 13 12 9 7 7 7 5 8 8 7 7 7 7 6 3 4 3 4 3 6 6 5 4 13 17 15 11 6
Wind_Direction
322 303 289 21 45 63 263 257 322 303 324 238 136 176 171 139 165 194 161 155 140 148 157 161 152 151 144 139 138 139 134 130 124 121 118 117 119 120 118 121 123 125 125 123 123 122 118 113 108
325 312 37 64 99 57 264 224 258 243 276 109 100 127 30 69 87 117 121 151 152 150 152 165 156 152 147 144 143 142 139 135 130 127 128 128 130 130 129 128 129 132 132 132 131 129 126 123 121
298 243 92 135 176 198 235 186 301 326 323 305 119 88 91 138 127 153 147 148 147 152 152 165 162 153 151 149 149 149 146 141 137 136 137 138 139 137 134 135 137 138 138 138 137 138 137 138 138
5 20 11 142 227 254 232 277 11 327 316 320 207 80 65 286 149 153 147 144 149 154 155 164 166 158 155 155 155 154 152 149 147 148 148 148 146 146 143 141 143 143 145 146 145 146 145 149 164
33 68 129 241 250 255 262 277 287 278 266 283 302 150 107 351 108 136 148 149 149 152 156 158 169 166 159 157 158 158 157 156 154 153 153 154 154 154 149 150 150 149 151 155 152 153 151 160 195
21 100 100 239 243 283 275 267 307 276 266 265 281 120 121 132 131 150 152 153 154 148 150 161 169 173 165 159 158 159 158 157 155 155 157 159 158 158 157 156 155 155 159 164 164 166 167 174 197
140 98 220 237 248 273 264 301 264 274 269 262 237 102 134 152 152 154 150 147 147 145 144 154 166 174 174 164 158 154 155 160 160 160 162 162 161 162 162 161 160 162 168 173 176 179 184 190 206
146 118 242 235 216 264 269 357 320 323 290 295 153 154 169 173 163 150 144 147 147 148 150 148 140 139 141 156 163 157 159 161 161 162 163 161 162 165 167 166 170 172 180 186 190 198 205 212 220
145 110 218 238 189 246 266 12 315 275 344 337 348 130 162 160 142 134 129 137 139 149 155 150 144 127 122 122 167 170 169 162 162 164 163 150 147 163 173 175 184 184 190 198 204 217 226 233 243
163 173 218 219 217 268 282 8 314 338 346 343 1 10 127 147 138 144 154 162 164 160 168 167 156 150 146 161 173 171 181 165 156 154 150 144 152 166 178 189 195 193 200 203 210 220 233 243 258
198 216 220 270 242 258 275 303 240 226 301 224 307 315 332 30 34 156 171 170 179 177 168 174 166 160 159 162 164 152 155 145 134 146 153 153 161 171 191 208 227 197 207 212 222 233 233 243 239
250 229 211 255 271 268 270 239 254 200 239 251 271 199 180 323 322 138 135 203 186 177 180 178 174 171 171 156 161 162 161 163 160 160 164 165 171 182 182 185 201 202 215 210 216 222 233 240 243
231 234 258 251 252 260 271 262 251 212 242 289 304 310 279 187 237 285 310 126 185 183 175 175 170 171 169 156 160 159 164 169 176 174 180 178 183 190 181 198 191 200 196 203 208 219 236 245 238
236 216 243 253 254 259 254 262 208 237 223 243 284 285 288 282 197 211 319 23 122 189 175 163 168 164 174 169 165 171 171 176 179 184 187 188 189 185 192 200 210 212 201 202 202 206 222 249 249
239 262 266 241 238 237 235 264 231 221 253 241 239 255 267 276 287 187 207 239 148 170 171 169 170 168 162 170 178 175 184 175 183 183 191 192 189 191 193 197 201 217 211 211 209 215 185 222 223
206 209 250 263 241 257 178 256 247 215 232 253 255 255 257 258 248 239 218 222 167 150 173 175 173 174 169 164 179 184 177 183 189 186 183 194 180 175 202 193 214 204 222 216 205 218 195 209 202
220 248 234 257 207 221 198 255 237 230 217 236 252 256 251 256 264 254 224 222 168 170 167 178 189 176 160 149 159 118 133 136 159 142 158 154 152 148 138 133 142 114 128 140 175 156 138 53 356
236 229 232 214 250 201 247 255 259 249 217 235 233 248 237 228 239 242 233 206 224 167 170 176 179 159 139 106 114 109 106 93 134 142 142 138 137 133 121 127 120 122 125 143 211 209 140 179 129
262 231 254 230 236 214 249 263 259 251 236 232 237 236 239 237 232 229 226 212 211 140 165 175 146 152 144 136 136 137 142 104 59 51 95 115 134 155 162 171 170 161 170 184 169 159 135 218 135
229 255 255 295 260 200 252 257 252 233 229 228 227 239 246 240 236 239 218 212 188 152 160 163 159 156 157 152 130 115 132 124 127 125 138 179 175 194 205 195 200 189 177 181 190 167 95 343 114
227 235 249 246 295 264 274 286 232 224 211 217 236 239 233 228 233 227 215 198 152 144 156 158 171 168 172 154 120 91 75 85 117 177 222 216 200 203 206 282 209 195 208 202 168 151 150 212 220
233 232 246 259 260 258 134 270 249 200 201 206 229 216 188 173 84 84 137 155 160 152 163 170 172 174 160 127 126 148 165 163 234 191 204 209 196 241 183 237 59 64 123 70 128 138 234 42 216
251 240 241 249 249 261 262 191 269 241 235 241 227 172 240 106 100 86 96 106 93 110 134 141 145 148 150 174 186 184 192 204 254 291 273 293 278 207 227 206 173 170 151 150 162 236 225 211 216
245 247 303 294 225 237 245 161 271 194 199 247 156 149 165 115 103 90 82 86 105 131 132 153 157 159 161 179 182 191 182 176 94 195 209 242 251 265 260 272 191 185 67 128 163 140 142 259 293
222 220 202 276 192 220 198 189 214 246 208 241 222 159 148 107 94 92 85 78 63 141 160 159 163 167 162 170 178 181 169 162 169 180 195 191 200 221 233 208 70 85 201 236 343 342 5 249 189
210 194 179 207 224 220 277 250 258 268 54 125 131 128 121 103 103 99 94 86 79 64 58 145 175 173 172 188 179 169 186 183 199 197 207 214 213 219 205 128 118 177 184 148 113 288 256 252 182
241 194 202 169 338 80 278 318 37 355 110 131 127 127 119 110 107 103 96 86 83 79 72 71 72 93 148 143 138 195 197 208 226 236 218 225 218 196 181 156 155 177 175 179 185 221 262 240 258
223 208 149 48 155 97 305 89 27 348 349 324 111 89 66 106 103 98 90 87 81 81 72 66 65 70 55 72 85 76 65 48 26 63 75 95 107 76 109 148 181 196 264 279 254 202 248 247 235
244 221 198 131 138 136 185 234 158 51 17 22 2 56 89 75 85 107 106 98 85 82 79 67 69 69 68 67 63 78 75 80 93 107 135 160 146 177 191 202 219 211 217 144 311 259 244 242 228
228 270 156 149 189 158 114 255 117 69 46 13 44 59 62 70 68 48 74 105 93 82 71 62 47 65 76 84 77 57 65 68 69 65 64 65 114 147 140 181 182 193 239 211 234 242 229 220 222